User: anonymous   Login
Location: ?
(35.4996°N, 139.3166°E)
Time: 16:04:08
(UTC+00:00)
Language:

UNK - Orbit

View from above orbital plane
View from above orbital plane
View from above satellite
View from above satellite

Ground track
Ground track

The orbit data is extracted from the following two-line orbital elements,

1 27940U 03042B   24170.86733495  .00001108  00000-0  20531-3 0  9994
2 27940  98.3144 322.0460 0014445 127.1452 233.1073 14.67260978107669
Epoch (UTC): 18 June 2024 20:48:57
Eccentricity: 0.0014445
inclination: 98.3144°
perigee height: 659 km
apogee height: 680 km
right ascension of ascending node: 322.0460°
argument of perigee: 127.1452°
revolutions per day: 14.67260978
mean anomaly at epoch: 233.1073°
orbit number at epoch: 10766

The dashed part of the orbit path shows where the satellite is in the earth's shadow,  

DLR